STARLINK-11230 [DTC]

Last updated on Mon Oct 14 2024 00:02:03 GMT+0000 (Coordinated Universal Time)

1 61053U 24164D 24287.38911365 .00040193 00000+0 24766-3 0 9995 2 61053 53.1532 316.9304 0000995 54.2938 305.8176 15.76797452 5992
UTC large
Height (km)
Speed (km/s)
/
Latitude / Longitude
Inclination (degrees)
Orbital Period (minutes)
Azimuth
Elevation
Range (km)
Doppler Factor

Next 0 passes for location: London (51.5072 / 0.1276)

Sorry there are no passes over London.